Location: Unspecified
(35.6961°N, 0.0000°E)
Time: 10:37:52
(UTC+00:00)

Altair - Pass Details

Date: 27 May 2019
Orbit: 1501 x 1683 km, 47.2° (Epoch: 16 June)

Event Time Altitude Azimuth Distance (km) Brightness Sun altitude
Rises 05:44:09 0° 284° (WNW) 4,927 9.6 9.7°
Reaches altitude 10° 05:47:36 10° 291° (WNW) 3,945 9.2 10.4°
Maximum altitude 05:57:09 43° 0° (N) 2,224 8.7 12.2°
Drops below altitude 10° 06:06:35 10° 70° (ENE) 3,899 12.7 14.1°
Sets 06:09:58 0° 77° (ENE) 4,865 12.1 14.7°
